Carmi, IL

5:38 PM CDT on April 25, 2017 (GMT -0500)
Carmi Municipal

Weather History for KCUL - April, 2013

Change the Weather History Date:

Friday, April 5, 2013

  Actual Average (KEHR) Record (KEHR)
Temperature  
Mean Temperature 50 °F -  
Max Temperature 66 °F 62 °F 86 °F (1988)
Min Temperature 35 °F 40 °F 25 °F (1944)
Degree Days  
Heating Degree Days 14    
Moisture  
Dew Point 35 °F    
Average Humidity 59    
Maximum Humidity 91    
Minimum Humidity 28    
Precipitation  
Precipitation 0.00 in - - ()
Sea Level Pressure  
Sea Level Pressure 30.09 in    
Wind  
Wind Speed 5 mph (NNW)    
Max Wind Speed 14 mph    
Max Gust Speed 18 mph    
Visibility 10 miles    
Events      
Averages and records for this station are not official NWS values.
T = Trace of Precipitation, MM = Missing Value Source: NWS Daily Summary

Daily Weather History Graph

Daily Weather History Graph

Search for Another Location

Airport or City:

Trip Planner

Search our weather history database for the weather conditions in past years. The results will help you decide how hot, cold, wet, or windy it might be!

Date:

Astronomy

Apr. 05, 2013 Rise Set
Actual Time 6:31 AM CDT 7:19 PM CDT
Civil Twilight 6:04 AM CDT 7:46 PM CDT
Nautical Twilight 5:32 AM CDT 8:18 PM CDT
Astronomical Twilight 5:00 AM CDT 8:50 PM CDT
Moon 3:33 AM CDT (4/5) 2:47 PM CDT (4/5)
Length of Visible Light 13h 41m
Length of Day
12h 48m
Waning Crescent, 23% of the Moon is Illuminated
Apr 5
Waning Crescent
Apr 10
New
Apr 18
First Quarter
Apr 25
Full
May 2
Last Quarter

Hourly Weather History & Observations

Time (CDT) Temp. Windchill Dew Point Humidity Pressure Visibility Wind Dir Wind Speed Gust Speed Precip Events Conditions
12:15 AM 38.3 °F 35.9 °F 33.6 °F 83% 30.03 in 10.0 mi West 3.5 mph - N/A   Clear
12:35 AM 38.5 °F 36.1 °F 33.3 °F 81% 30.04 in 10.0 mi WNW 3.5 mph - N/A   Clear
12:55 AM 36.7 °F 32.9 °F 33.1 °F 87% 30.04 in 10.0 mi West 4.6 mph - N/A   Clear
1:15 AM 38.1 °F 35.7 °F 32.7 °F 81% 30.04 in 10.0 mi West 3.5 mph - N/A   Clear
1:35 AM 37.0 °F 33.3 °F 32.0 °F 82% 30.04 in 10.0 mi WNW 4.6 mph - N/A   Clear
1:55 AM 37.0 °F 33.3 °F 32.2 °F 83% 30.04 in 10.0 mi WNW 4.6 mph - N/A   Clear
2:15 AM 38.5 °F 33.4 °F 32.0 °F 78% 30.04 in 10.0 mi WNW 6.9 mph - N/A   Clear
2:35 AM 36.7 °F 30.5 °F 31.3 °F 81% 30.04 in 10.0 mi WNW 8.1 mph - N/A   Clear
2:55 AM 36.7 °F 30.5 °F 31.6 °F 82% 30.05 in 10.0 mi WNW 8.1 mph - N/A   Clear
3:15 AM 37.9 °F 33.5 °F 31.1 °F 76% 30.05 in 10.0 mi WNW 5.8 mph - N/A   Clear
3:35 AM 37.9 °F 35.5 °F 32.0 °F 79% 30.05 in 10.0 mi West 3.5 mph - N/A   Clear
3:55 AM 37.2 °F 34.7 °F 31.1 °F 79% 30.05 in 10.0 mi West 3.5 mph - N/A   Clear
4:15 AM 36.5 °F - 32.0 °F 84% 30.06 in 10.0 mi Calm Calm - N/A   Clear
4:35 AM 36.1 °F - 32.0 °F 85% 30.06 in 10.0 mi Calm Calm - N/A   Clear
4:55 AM 35.1 °F - 32.0 °F 89% 30.07 in 10.0 mi Calm Calm - N/A   Clear
5:15 AM 35.6 °F - 31.8 °F 86% 30.07 in 10.0 mi Calm Calm - N/A   Clear
5:35 AM 35.2 °F - 32.0 °F 88% 30.08 in 10.0 mi Calm Calm - N/A   Clear
5:55 AM 35.6 °F - 32.0 °F 87% 30.09 in 10.0 mi Calm Calm - N/A   Clear
6:15 AM 35.6 °F - 32.0 °F 87% 30.09 in 10.0 mi Calm Calm - N/A   Clear
6:35 AM 35.1 °F - 32.2 °F 89% 30.10 in 10.0 mi Calm Calm - N/A   Clear
6:55 AM 35.6 °F - 32.9 °F 90% 30.10 in 10.0 mi Calm Calm - N/A   Clear
7:15 AM 35.6 °F - 32.4 °F 88% 30.11 in 10.0 mi Calm Calm - N/A   Clear
7:35 AM 37.0 °F - 34.7 °F 91% 30.11 in 10.0 mi Calm Calm - N/A   Clear
7:55 AM 39.9 °F - 36.1 °F 86% 30.12 in 10.0 mi Calm Calm - N/A   Clear
8:15 AM 44.4 °F - 36.0 °F 72% 30.11 in 10.0 mi Calm Calm - N/A   Clear
8:35 AM 47.5 °F - 37.9 °F 69% 30.11 in 10.0 mi Calm Calm - N/A   Clear
8:55 AM 51.8 °F - 33.3 °F 49% 30.11 in 10.0 mi WNW 5.8 mph - N/A   Clear
9:15 AM 53.4 °F - 34.3 °F 48% 30.11 in 10.0 mi West 8.1 mph - N/A   Clear
9:35 AM 55.0 °F - 35.6 °F 48% 30.11 in 10.0 mi WNW 4.6 mph - N/A   Clear
9:55 AM 56.3 °F - 35.1 °F 45% 30.11 in 10.0 mi West 3.5 mph - N/A   Clear
10:15 AM 57.4 °F - 34.3 °F 42% 30.12 in 10.0 mi NW 4.6 mph - N/A   Clear
10:35 AM 59.2 °F - 34.3 °F 39% 30.12 in 10.0 mi WNW 8.1 mph - N/A   Clear
10:55 AM 59.5 °F - 35.1 °F 40% 30.13 in 10.0 mi NW 10.4 mph - N/A   Clear
11:15 AM 60.1 °F - 36.3 °F 41% 30.13 in 10.0 mi NW 8.1 mph - N/A   Clear
11:35 AM 61.3 °F - 36.0 °F 39% 30.13 in 10.0 mi WNW 6.9 mph - N/A   Clear
11:55 AM 62.4 °F - 36.7 °F 38% 30.12 in 10.0 mi NNW 8.1 mph - N/A   Clear
12:15 PM 63.1 °F - 38.7 °F 40% 30.12 in 7.0 mi NNW 11.5 mph - N/A   Clear
12:35 PM 63.5 °F - 39.4 °F 41% 30.11 in 10.0 mi NNW 9.2 mph - N/A   Clear
12:55 PM 64.4 °F - 40.5 °F 41% 30.11 in 10.0 mi NNW 10.4 mph - N/A   Clear
1:15 PM 65.1 °F - 40.3 °F 40% 30.11 in 10.0 mi NNW 13.8 mph 18.4 mph N/A   Clear
1:35 PM 65.1 °F - 37.0 °F 35% 30.10 in 10.0 mi NNW 10.4 mph - N/A   Clear
1:55 PM 65.3 °F - 33.4 °F 31% 30.10 in 10.0 mi NNW 11.5 mph - N/A   Clear
2:15 PM 65.7 °F - 31.8 °F 28% 30.10 in 10.0 mi NW 5.8 mph 16.1 mph N/A   Clear
2:35 PM 65.5 °F - 32.9 °F 30% 30.08 in 7.0 mi North 9.2 mph - N/A   Clear
2:55 PM 65.7 °F - 34.7 °F 32% 30.08 in 10.0 mi NNW 5.8 mph - N/A   Clear
3:15 PM 66.0 °F - 34.7 °F 31% 30.07 in 10.0 mi NNW 9.2 mph - N/A   Clear
3:35 PM 65.8 °F - 32.7 °F 29% 30.07 in 10.0 mi North 10.4 mph - N/A   Clear
3:55 PM 65.8 °F - 33.1 °F 30% 30.07 in 10.0 mi NNW 6.9 mph 10.4 mph N/A   Clear
4:15 PM 65.7 °F - 34.3 °F 31% 30.06 in 10.0 mi North 8.1 mph - N/A   Clear
4:35 PM 65.5 °F - 33.1 °F 30% 30.07 in 10.0 mi North 6.9 mph - N/A   Clear
4:55 PM 65.1 °F - 32.9 °F 30% 30.07 in 10.0 mi NNE 5.8 mph - N/A   Clear
5:15 PM 65.3 °F - 34.7 °F 32% 30.07 in 10.0 mi NNW 9.2 mph - N/A   Clear
5:35 PM 64.6 °F - 34.0 °F 32% 30.07 in 10.0 mi North 8.1 mph - N/A   Clear
5:55 PM 63.9 °F - 34.2 °F 33% 30.07 in 10.0 mi North 6.9 mph - N/A   Clear
6:15 PM 63.0 °F - 34.0 °F 34% 30.08 in 10.0 mi North 8.1 mph - N/A   Clear
6:35 PM 62.1 °F - 34.3 °F 35% 30.08 in 10.0 mi North 8.1 mph - N/A   Clear
6:55 PM 60.1 °F - 36.0 °F 41% 30.08 in 10.0 mi North 5.8 mph - N/A   Clear
7:15 PM 57.4 °F - 35.6 °F 44% 30.09 in 10.0 mi North 5.8 mph - N/A   Clear
7:35 PM 56.5 °F - 37.8 °F 50% 30.08 in 10.0 mi North 5.8 mph - N/A   Clear
7:55 PM 55.6 °F - 36.9 °F 49% 30.09 in 10.0 mi North 5.8 mph - N/A   Clear
8:15 PM 54.5 °F - 38.7 °F 55% 30.09 in 10.0 mi North 3.5 mph - N/A   Clear
8:35 PM 54.7 °F - 36.1 °F 50% 30.10 in 10.0 mi North 5.8 mph - N/A   Clear
8:55 PM 51.8 °F - 38.7 °F 61% 30.10 in 10.0 mi NNE 4.6 mph - N/A   Clear
9:15 PM 51.1 °F - 37.2 °F 59% 30.11 in 10.0 mi NE 5.8 mph - N/A   Clear
9:35 PM 50.9 °F - 37.4 °F 60% 30.11 in 10.0 mi NNE 5.8 mph - N/A   Clear
9:55 PM 49.6 °F - 37.4 °F 63% 30.11 in 10.0 mi NNE 5.8 mph - N/A   Clear
10:15 PM 49.3 °F - 38.1 °F 65% 30.11 in 10.0 mi NNE 5.8 mph - N/A   Clear
10:35 PM 46.2 °F - 37.4 °F 71% 30.12 in 10.0 mi Calm Calm - N/A   Clear
10:55 PM 47.1 °F - 38.5 °F 72% 30.10 in 10.0 mi Calm Calm - N/A   Clear
11:15 PM 47.3 °F - 37.6 °F 69% 30.10 in 10.0 mi Calm Calm - N/A   Clear
11:35 PM 46.9 °F - 37.6 °F 70% 30.10 in 10.0 mi Calm Calm - N/A   Clear
11:55 PM 45.7 °F 44.4 °F 39.0 °F 78% 30.10 in 10.0 mi East 3.5 mph - N/A   Clear